NOAA NWS Hourly Roundups by Site

Regional Weather Roundup for Phoenix, AZ

To Select Another Site Choose from List

Select Site:  

000
ASUS45 KPSR 180510
RWRAZ

ARIZONA HOURLY REGIONAL WEATHER ROUNDUP
NATIONAL WEATHER SERVICE PHOENIX AZ
1000 PM MST WED OCT 17 2018

NOTE: FAIR INDICATES FEW OR NO CLOUDS BELOW 12,000 FEET WITH NO
SIGNIFICANT WEATHER AND/OR OBSTRUCTIONS TO VISIBILITY.

AZZ001>003-036-180600-
NORTHWEST ARIZONA

CITY           SKY/WX    TMP DP  RH WIND       PRES   REMARKS
KINGMAN        PTCLDY    53  36  52 SE8       30.18R
$$

AZZ004>008-015-016-018-180600-
NORTH CENTRAL ARIZONA

CITY           SKY/WX    TMP DP  RH WIND       PRES   REMARKS
GRAND CANYON   CLEAR     38  34  85 E5        30.30R WCI  34
WILLIAMS       CLEAR     34  32  93 S7        30.26R WCI  28
PRESCOTT       CLEAR     42  37  82 CALM      30.22S
FLAGSTAFF      PTCLDY    29  28  96 S3        30.29R
PAYSON         CLEAR     48  37  66 VRB5G14   30.24R
PAGE           MOCLDY    47  42  83 W3        30.28S
$$

AZZ009>014-017-180600-
NORTHEAST ARIZONA

CITY           SKY/WX    TMP DP  RH WIND       PRES   REMARKS
WINSLOW        PTCLDY    45  41  86 W7        30.25S
SAINT JOHNS    PTCLDY    46  38  73 SE9       30.26S
WINDOW ROCK    CLOUDY    45  37  73 VRB5      30.33R
SHOW LOW       MOCLDY    41  39  93 CALM      30.29S
$$

AZZ540-542>544-546-548-180600-
GREATER PHOENIX AREA

CITY           SKY/WX    TMP DP  RH WIND       PRES   REMARKS
PHOENIX        CLEAR     67  43  41 E13       30.05R
BUCKEYE        CLEAR     68  41  37 NE12      30.06R
LUKE AFB       CLEAR     68  43  40 NE9       30.05R
DEER VALLEY    CLEAR     65  44  46 NE7       30.08R
SCOTTSDALE     CLEAR     68  40  35 E9        30.08R
MESA-FALCON    CLEAR     66  40  38 NE3       30.07R
MESA-GATEWAY   CLEAR     64  43  45 E6        30.08R
$$

AZZ539-553-180600-
SOUTHWEST MARICOPA COUNTY AND PINAL COUNTY

CITY           SKY/WX    TMP DP  RH WIND       PRES   REMARKS
CASA GRANDE    CLEAR     64  45  49 NE17      30.06R
GILA BEND      FAIR      67  46  47 NE7       30.02R
$$

AZZ503-504-507>509-180600-
SOUTHEAST ARIZONA

CITY           SKY/WX    TMP DP  RH WIND       PRES   REMARKS
TUCSON         CLEAR     60  43  53 SE7       30.11R
DAVIS-MONTHAN  CLEAR     59  43  53 E12       30.09R
NOGALES        CLEAR     57  40  52 NE8       30.11R
SIERRA VISTA   CLEAR     47  41  81 E10       30.21S
DOUGLAS        CLEAR     51  42  71 E14       30.20S
SAFFORD        CLOUDY    54  45  71 E12       30.23S
$$

AZZ532-180600-
SOUTHWEST ARIZONA

CITY           SKY/WX    TMP DP  RH WIND       PRES   REMARKS
YUMA           CLEAR     70  41  34 N7        30.02R
$$

CAZ041-043-047-048-061-525>527-560>570-180600-
SOUTHERN CALIFORNIA

CITY           SKY/WX    TMP DP  RH WIND       PRES   REMARKS
DOWNTOWN L.A.  CLEAR     66  50  56 CALM      30.03R
L.A. AIRPORT   CLEAR     67  57  70 S3        30.04R
SAN DIEGO      CLEAR     69  44  40 N3        30.05S
BURBANK        CLEAR     65  34  31 NW5       30.05R
ONTARIO        CLEAR     66  35  31 CALM      30.06R
RIVERSIDE      CLEAR     65  43  44 SE3       30.06R
PALM SPRINGS   CLEAR     71  39  31 NW6       30.08R
EL CENTRO NAS  CLEAR     62  32  32 W9        30.06R
IMPERIAL       CLEAR     63  43  48 W7        30.03R
BLYTHE         CLEAR     68  42  38 NW7       30.04S
NEEDLES        CLEAR     73  35  25 N8        30.07S
$$

NVZ020-UTZ003-180600-
SOUTHERN NEVADA-UTAH

CITY           SKY/WX    TMP DP  RH WIND       PRES   REMARKS
LAS VEGAS      CLEAR     63  34  33 W5        30.14S
SALT LAKE CITY PTCLDY    53  34  48 SE10      30.23S
$$

NMZ009-TXZ055-180600-
NEW MEXICO-WEST TEXAS

CITY           SKY/WX    TMP DP  RH WIND       PRES   REMARKS
ALBUQUERQUE    MOCLDY    46  36  68 E22       30.40S
EL PASO        RAIN      50  46  86 SE7       30.35R
$$


........................KEY........................
SKY/WX - SKY CONDITION/WEATHER
TMP    - TEMPERATURE IN FAHRENHEIT
DP     - DEW POINT IN FAHRENHEIT
RH     - RELATIVE HUMIDITY IN PERCENT
WIND   - DIRECTION AND SPEED IN MILES PER HOUR (MPH)
VRB    - VARIABLE WIND DIRECTION
PRES   - MEAN SEA LEVEL PRESSURE IN INCHES OF MERCURY
         F - FALLING PRESSURE   R - RISING PRESSURE
         S - STEADY PRESSURE
VSB    - VISIBILITY IN MILES
HX     - HEAT INDEX IN FAHRENHEIT
WCI    - WIND CHILL INDEX IN FAHRENHEIT
TC     - TEMPERATURE IN CELSIUS WHICH IS ALSO KNOWN AS
         TEMPERATURE IN CENTIGRADE
AFB    - AIR FORCE BASE
         LUKE AFB IS LUKE AIR FORCE BASE
         DAVIS-MONTHAN IS DAVIS-MONTHAN AIR FORCE BASE
NAS    - NAVAL AIR STATION
         EL CENTRO NAS IS EL CENTRO NAVAL AIR STATION
N/A    - NOT AVAILABLE




 

View Past Reports for Phoenix, AZ.

Products Courtesy of NOAA-NWS
NWS Information Parsing Script by Ken True at Saratoga Weather - Script by SE Lincoln Weather.